Back to catalog

CZ-6A DEB

AlivePO
NORAD 61339·DEBRIS·🇨🇳 China

Launched Aug 6, 2024 from Taiyuan Satellite Launch Center

Loading…

Next Passes (next 24 hours)

TLE

FreshSource: Space-Track

Epoch: Sep 14, 2026, 10:07 UTC

1 61339U 24140VC  26257.42215096  .00000389  00000-0  84244-4 0  9990
2 61339  88.9738 257.6916 0108157 319.9834  39.3439 14.52681559107580

Track CZ-6A DEB in real time with AllMySat

Download on the App Store